�������l�o���
Date,Time,MP-1(��Sv/h),MP-2(��Sv/h),MP-3(��Sv/h),MP-4(��Sv/h),MP-5(��Sv/h),MP-6(��Sv/h),MP-7(��Sv/h),MP-8(��Sv/h),����,����(m/s),���J
2021/05/24,00:00,0.609,0.895,0.572,1.089,0.769,0.367,0.638,0.598,�k,1.2,��
2021/05/24,00:10,0.608,0.895,0.570,1.088,0.767,0.368,0.636,0.597,�k,1.7,��
2021/05/24,00:20,0.607,0.894,0.571,1.088,0.768,0.368,0.636,0.597,�k�k��,2.3,��
2021/05/24,00:30,0.607,0.896,0.573,1.087,0.771,0.367,0.636,0.597,�k�k��,2.6,��
2021/05/24,00:40,0.608,0.893,0.570,1.087,0.768,0.367,0.637,0.599,�k��,2.3,��
2021/05/24,00:50,0.607,0.893,0.573,1.088,0.768,0.369,0.637,0.597,�k�k��,3.3,��
2021/05/24,01:00,0.609,0.896,0.572,1.086,0.769,0.367,0.637,0.597,�k�k��,3.5,��
2021/05/24,01:10,0.608,0.894,0.571,1.089,0.769,0.367,0.636,0.599,�k��,2.3,��
2021/05/24,01:20,0.609,0.894,0.571,1.087,0.768,0.366,0.637,0.597,�k�k��,2.8,��
2021/05/24,01:30,0.610,0.893,0.570,1.090,0.768,0.367,0.635,0.596,�k�k��,2.8,��
2021/05/24,01:40,0.608,0.893,0.570,1.088,0.768,0.369,0.637,0.596,�k�k��,2.6,��
2021/05/24,01:50,0.607,0.894,0.572,1.090,0.768,0.367,0.636,0.598,�k�k��,1.7,��
2021/05/24,02:00,0.607,0.893,0.572,1.088,0.767,0.367,0.636,0.596,�k�k��,2.3,��
2021/05/24,02:10,0.611,0.894,0.572,1.089,0.768,0.367,0.637,0.598,�k��,2.0,��
2021/05/24,02:20,0.609,0.895,0.573,1.088,0.767,0.367,0.638,0.597,�k��,2.6,��
2021/05/24,02:30,0.608,0.893,0.572,1.087,0.769,0.367,0.635,0.599,�k��,2.3,��
2021/05/24,02:40,0.609,0.894,0.571,1.088,0.768,0.368,0.637,0.597,�k��,3.7,��
2021/05/24,02:50,0.608,0.895,0.572,1.088,0.769,0.366,0.636,0.597,�k��,4.6,��
2021/05/24,03:00,0.608,0.894,0.571,1.088,0.771,0.368,0.637,0.597,�k��,5.1,��
2021/05/24,03:10,0.609,0.892,0.570,1.089,0.769,0.368,0.635,0.596,�k��,3.6,��
2021/05/24,03:20,0.606,0.895,0.570,1.090,0.769,0.367,0.639,0.598,�k�k��,2.0,��
2021/05/24,03:30,0.610,0.897,0.570,1.090,0.770,0.368,0.637,0.597,���k��,2.0,��
2021/05/24,03:40,0.606,0.893,0.572,1.090,0.767,0.367,0.636,0.597,���쓌,2.0,��
2021/05/24,03:50,0.608,0.894,0.572,1.089,0.770,0.367,0.636,0.599,���k��,1.5,��
2021/05/24,04:00,0.608,0.894,0.572,1.090,0.769,0.367,0.637,0.597,���k��,1.4,��
2021/05/24,04:10,0.609,0.893,0.571,1.089,0.768,0.366,0.637,0.598,��,1.2,��
2021/05/24,04:20,0.609,0.893,0.571,1.089,0.769,0.367,0.637,0.598,���쓌,1.5,��
2021/05/24,04:30,0.608,0.895,0.569,1.090,0.769,0.368,0.637,0.597,��,1.2,��
2021/05/24,04:40,0.607,0.892,0.571,1.091,0.768,0.367,0.636,0.598,���k��,1.9,��
2021/05/24,04:50,0.607,0.895,0.571,1.090,0.768,0.367,0.636,0.596,���k��,1.9,��
2021/05/24,05:00,0.607,0.894,0.570,1.090,0.770,0.367,0.636,0.597,��,1.2,��
2021/05/24,05:10,0.608,0.895,0.571,1.089,0.769,0.367,0.637,0.596,-,CALM,��
2021/05/24,05:20,0.607,0.895,0.570,1.090,0.768,0.368,0.636,0.599,-,CALM,��
2021/05/24,05:30,0.609,0.895,0.571,1.090,0.769,0.366,0.638,0.600,�쓌,0.8,��
2021/05/24,05:40,0.609,0.894,0.570,1.088,0.768,0.367,0.636,0.596,��,0.6,��
2021/05/24,05:50,0.611,0.895,0.571,1.088,0.770,0.367,0.638,0.599,-,CALM,��
2021/05/24,06:00,0.607,0.895,0.573,1.090,0.770,0.367,0.636,0.598,�k��,1.7,��
2021/05/24,06:10,0.609,0.896,0.573,1.089,0.770,0.367,0.637,0.598,�k�k��,1.2,��
2021/05/24,06:20,0.611,0.897,0.572,1.089,0.768,0.368,0.638,0.598,�k,1.5,��
2021/05/24,06:30,0.610,0.897,0.573,1.089,0.770,0.366,0.637,0.597,�k�k��,1.4,��
2021/05/24,06:40,0.610,0.896,0.572,1.091,0.771,0.368,0.637,0.597,�k�k��,1.2,��
2021/05/24,06:50,0.611,0.895,0.574,1.092,0.770,0.367,0.637,0.600,�k�k��,1.5,��
2021/05/24,07:00,0.609,0.894,0.570,1.089,0.771,0.367,0.638,0.599,�k��,2.0,��
2021/05/24,07:10,0.610,0.893,0.572,1.091,0.771,0.367,0.636,0.599,�k��,1.4,��
2021/05/24,07:20,0.609,0.895,0.572,1.091,0.768,0.366,0.637,0.597,�쓌,3.2,��
2021/05/24,07:30,0.607,0.892,0.572,1.090,0.768,0.364,0.635,0.597,�쓌,3.5,��
2021/05/24,07:40,0.607,0.892,0.571,1.092,0.770,0.365,0.636,0.598,��쓌,4.3,��
2021/05/24,07:50,0.607,0.893,0.571,1.092,0.770,0.366,0.635,0.597,��쓌,4.6,��
2021/05/24,08:00,0.608,0.893,0.571,1.092,0.770,0.366,0.635,0.595,��쓌,4.0,��
2021/05/24,08:10,0.607,0.895,0.569,1.090,0.769,0.366,0.634,0.596,�쓌,3.4,��
2021/05/24,08:20,0.606,0.894,0.571,1.090,0.767,0.366,0.635,0.596,�쓌,3.7,��
2021/05/24,08:30,0.608,0.896,0.571,1.091,0.768,0.367,0.638,0.598,�쓌,3.3,��
2021/05/24,08:40,0.609,0.895,0.572,1.092,0.767,0.367,0.635,0.596,�쓌,3.7,��
2021/05/24,08:50,0.608,0.896,0.571,1.095,0.769,0.367,0.636,0.596,��쓌,4.4,��
2021/05/24,09:00,0.608,0.898,0.572,1.093,0.770,0.366,0.635,0.596,��쓌,4.3,��
2021/05/24,09:10,0.610,0.896,0.572,1.092,0.770,0.367,0.636,0.596,�쓌,3.8,��
2021/05/24,09:20,0.611,0.896,0.571,1.094,0.769,0.368,0.638,0.597,���쓌,5.3,��
2021/05/24,09:30,0.612,0.897,0.571,1.095,0.771,0.367,0.637,0.598,�쓌,7.4,��
2021/05/24,09:40,0.610,0.897,0.569,1.095,0.770,0.367,0.637,0.598,��쓌,7.0,��
2021/05/24,09:50,0.609,0.898,0.571,1.095,0.773,0.367,0.638,0.597,��쓌,7.0,��
2021/05/24,10:00,0.610,0.900,0.571,1.091,0.772,0.369,0.640,0.597,��,7.0,��
2021/05/24,10:10,0.609,0.897,0.573,1.095,0.771,0.367,0.639,0.598,��쓌,6.8,��
2021/05/24,10:20,0.609,0.899,0.572,1.095,0.772,0.366,0.638,0.597,��쓌,6.5,��
2021/05/24,10:30,0.612,0.900,0.573,1.096,0.775,0.369,0.638,0.597,��쓌,6.5,��
2021/05/24,10:40,0.612,0.901,0.572,1.095,0.774,0.367,0.638,0.598,��,8.4,��
2021/05/24,10:50,0.611,0.900,0.573,1.095,0.775,0.368,0.640,0.596,��쓌,9.2,��
2021/05/24,11:00,0.613,0.903,0.574,1.093,0.773,0.369,0.638,0.598,��,8.6,��
2021/05/24,11:10,0.612,0.901,0.573,1.094,0.774,0.367,0.638,0.597,��,7.9,��
2021/05/24,11:20,0.613,0.903,0.574,1.092,0.775,0.369,0.640,0.598,��,7.1,��
2021/05/24,11:30,0.614,0.903,0.573,1.092,0.775,0.368,0.640,0.598,��,7.9,��
2021/05/24,11:40,0.614,0.901,0.574,1.093,0.777,0.368,0.639,0.598,��,8.4,��
2021/05/24,11:50,0.613,0.904,0.573,1.092,0.774,0.370,0.638,0.599,��,7.6,��
2021/05/24,12:00,0.612,0.905,0.573,1.093,0.775,0.369,0.640,0.598,��쓌,8.0,��
2021/05/24,12:10,0.614,0.905,0.574,1.090,0.776,0.369,0.639,0.600,��,8.8,��
2021/05/24,12:20,0.613,0.905,0.574,1.093,0.776,0.369,0.639,0.599,��,9.4,��
2021/05/24,12:30,0.612,0.904,0.573,1.092,0.775,0.370,0.639,0.598,��,9.5,��
2021/05/24,12:40,0.612,0.906,0.574,1.093,0.775,0.369,0.640,0.599,��쓌,12.5,��
2021/05/24,12:50,0.614,0.904,0.574,1.095,0.777,0.368,0.640,0.597,��쓌,11.1,��
2021/05/24,13:00,0.615,0.904,0.575,1.095,0.776,0.370,0.640,0.599,��쓌,11.1,��
2021/05/24,13:10,0.614,0.906,0.572,1.092,0.777,0.368,0.638,0.598,��쓌,10.3,��
2021/05/24,13:20,0.613,0.904,0.575,1.094,0.778,0.370,0.639,0.599,��쓌,10.5,��
2021/05/24,13:30,0.613,0.901,0.575,1.093,0.777,0.372,0.639,0.600,��쓌,9.4,��
2021/05/24,13:40,0.613,0.902,0.574,1.094,0.778,0.370,0.638,0.599,��쓌,8.6,��
2021/05/24,13:50,0.615,0.904,0.573,1.095,0.776,0.369,0.638,0.598,��,7.5,��
2021/05/24,14:00,0.613,0.905,0.574,1.093,0.777,0.370,0.639,0.598,��쓌,6.7,��
2021/05/24,14:10,0.612,0.906,0.573,1.093,0.778,0.371,0.641,0.600,��,4.9,��
2021/05/24,14:20,0.614,0.906,0.574,1.098,0.779,0.369,0.638,0.598,��,5.5,��
2021/05/24,14:30,0.614,0.904,0.575,1.097,0.778,0.370,0.639,0.599,��,5.6,��
2021/05/24,14:40,0.614,0.904,0.575,1.096,0.777,0.370,0.638,0.598,��쐼,6.5,��
2021/05/24,14:50,0.614,0.906,0.576,1.096,0.776,0.370,0.639,0.599,��,6.4,��
2021/05/24,15:00,0.614,0.906,0.573,1.096,0.778,0.370,0.640,0.599,��,6.5,��
2021/05/24,15:10,0.614,0.907,0.575,1.095,0.779,0.370,0.640,0.598,��,6.0,��
2021/05/24,15:20,0.613,0.907,0.575,1.096,0.779,0.370,0.641,0.598,��,4.6,��
2021/05/24,15:30,0.613,0.907,0.576,1.094,0.779,0.372,0.638,0.599,��,5.1,��
2021/05/24,15:40,0.615,0.906,0.574,1.097,0.778,0.372,0.638,0.599,��,3.1,��
2021/05/24,15:50,0.615,0.908,0.576,1.097,0.777,0.370,0.639,0.599,��,2.6,��
2021/05/24,16:00,0.615,0.908,0.575,1.097,0.779,0.369,0.638,0.599,��쐼,2.9,��
2021/05/24,16:10,0.614,0.908,0.576,1.098,0.778,0.370,0.639,0.600,�쐼,1.2,��
2021/05/24,16:20,0.614,0.908,0.575,1.098,0.775,0.371,0.640,0.598,��,0.9,��
2021/05/24,16:30,0.614,0.908,0.576,1.100,0.778,0.370,0.640,0.600,-,CALM,��
2021/05/24,16:40,0.613,0.907,0.575,1.099,0.779,0.370,0.639,0.598,���k��,0.9,��
2021/05/24,16:50,0.613,0.907,0.575,1.099,0.779,0.369,0.640,0.597,�k�k��,1.4,��
2021/05/24,17:00,0.614,0.910,0.576,1.101,0.779,0.368,0.640,0.599,�k�k��,2.2,��
2021/05/24,17:10,0.615,0.907,0.577,1.100,0.779,0.371,0.639,0.600,�k�k��,2.6,��
2021/05/24,17:20,0.616,0.908,0.577,1.100,0.777,0.370,0.641,0.600,�k,2.8,��
2021/05/24,17:30,0.615,0.908,0.580,1.100,0.779,0.372,0.639,0.598,�k�k��,2.6,��
2021/05/24,17:40,0.614,0.908,0.578,1.100,0.780,0.370,0.639,0.598,�k,4.3,��
2021/05/24,17:50,0.614,0.908,0.576,1.098,0.780,0.369,0.639,0.600,�k�k��,5.6,��
2021/05/24,18:00,0.616,0.910,0.576,1.100,0.781,0.370,0.639,0.598,�k�k��,4.6,��
2021/05/24,18:10,0.615,0.909,0.576,1.100,0.782,0.370,0.640,0.600,�k�k��,3.8,��
2021/05/24,18:20,0.616,0.910,0.577,1.101,0.782,0.369,0.641,0.600,�k�k��,4.5,�L
2021/05/24,18:30,0.614,0.911,0.577,1.101,0.783,0.369,0.641,0.598,�k�k��,4.5,��
2021/05/24,18:40,0.615,0.910,0.577,1.099,0.780,0.370,0.641,0.600,�k��,4.8,��
2021/05/24,18:50,0.616,0.912,0.576,1.103,0.782,0.369,0.639,0.600,�k��,5.2,��
2021/05/24,19:00,0.616,0.910,0.577,1.099,0.782,0.370,0.642,0.601,�k�k��,5.9,��
2021/05/24,19:10,0.617,0.909,0.578,1.102,0.782,0.370,0.639,0.601,�k�k��,4.8,��
2021/05/24,19:20,0.616,0.909,0.576,1.101,0.781,0.369,0.640,0.602,�k�k��,3.8,��
2021/05/24,19:30,0.616,0.910,0.578,1.103,0.780,0.369,0.638,0.600,�k�k��,2.2,��
2021/05/24,19:40,0.616,0.911,0.578,1.102,0.782,0.368,0.640,0.602,�k�k��,3.6,�L
2021/05/24,19:50,0.615,0.912,0.579,1.100,0.782,0.370,0.640,0.602,�k�k��,4.0,��
2021/05/24,20:00,0.614,0.910,0.576,1.100,0.780,0.371,0.638,0.602,�k,4.1,��
2021/05/24,20:10,0.614,0.911,0.577,1.103,0.780,0.370,0.640,0.600,�k�k��,4.3,��
2021/05/24,20:20,0.617,0.911,0.578,1.100,0.780,0.369,0.639,0.603,�k�k��,2.6,��
2021/05/24,20:30,0.615,0.910,0.578,1.098,0.779,0.369,0.639,0.602,�k�k��,4.1,��
2021/05/24,20:40,0.616,0.912,0.576,1.100,0.782,0.370,0.640,0.602,�k�k��,3.7,��
2021/05/24,20:50,0.615,0.910,0.577,1.100,0.784,0.370,0.640,0.600,�k�k��,3.6,��
2021/05/24,21:00,0.616,0.911,0.577,1.100,0.781,0.368,0.640,0.600,�k�k��,3.4,��
2021/05/24,21:10,0.617,0.913,0.578,1.100,0.780,0.370,0.640,0.601,�k�k��,3.8,��
2021/05/24,21:20,0.615,0.911,0.577,1.101,0.782,0.369,0.641,0.601,�k,3.8,��
2021/05/24,21:30,0.614,0.910,0.577,1.101,0.780,0.370,0.640,0.601,�k�k��,4.7,��
2021/05/24,21:40,0.615,0.909,0.576,1.100,0.780,0.369,0.641,0.600,�k�k��,3.3,��
2021/05/24,21:50,0.618,0.909,0.578,1.102,0.782,0.370,0.642,0.601,�k�k��,3.6,��
2021/05/24,22:00,0.616,0.911,0.578,1.102,0.784,0.370,0.640,0.601,�k�k��,4.8,��
2021/05/24,22:10,0.617,0.910,0.578,1.103,0.783,0.372,0.641,0.602,�k�k��,5.9,��
2021/05/24,22:20,0.619,0.911,0.578,1.103,0.781,0.370,0.642,0.601,�k�k��,4.5,��
2021/05/24,22:30,0.616,0.910,0.578,1.099,0.780,0.370,0.641,0.602,�k�k��,5.1,��
2021/05/24,22:40,0.617,0.909,0.577,1.101,0.782,0.369,0.641,0.603,�k�k��,4.7,��
2021/05/24,22:50,0.617,0.909,0.578,1.100,0.782,0.371,0.643,0.602,�k��,4.5,��
2021/05/24,23:00,0.618,0.910,0.577,1.103,0.781,0.371,0.641,0.603,�k��,3.0,��
2021/05/24,23:10,0.617,0.911,0.578,1.100,0.782,0.372,0.641,0.601,��,1.7,��
2021/05/24,23:20,0.617,0.910,0.577,1.102,0.783,0.370,0.641,0.602,���쐼,1.7,��
2021/05/24,23:30,0.616,0.910,0.579,1.103,0.782,0.371,0.641,0.602,�쐼,2.0,��
2021/05/24,23:40,0.618,0.911,0.579,1.103,0.783,0.371,0.641,0.603,��,2.0,��
2021/05/24,23:50,0.617,0.911,0.578,1.100,0.782,0.372,0.643,0.603,��,2.0,��
